Change the Weather History Date:

Friday, November 21, 2014

  Actual Average Record
Temperature  
Mean Temperature 38 °F -  
Max Temperature 41 °F 37 °F 45 °F (1981)
Min Temperature 35 °F 31 °F 24 °F (1980)
Degree Days  
Heating Degree Days 27    
Moisture  
Dew Point 33 °F    
Average Humidity 79    
Maximum Humidity 87    
Minimum Humidity 53    
Precipitation  
Precipitation 0.00 in - - ()
Sea Level Pressure  
Sea Level Pressure 29.51 in    
Wind  
Wind Speed 21 mph (North)    
Max Wind Speed 26 mph    
Max Gust Speed 34 mph    
Visibility 10 miles    
Events Rain , Snow    
Averages and records for this station are not official NWS values.
T = Trace of Precipitation, MM = Missing Value Source: NWS Daily Summary

Daily Weather History Graph

Daily Weather History Graph

Search for Another Location

Airport or City:

Trip Planner

Search our weather history database for the weather conditions in past years. The results will help you decide how hot, cold, wet, or windy it might be!

Date:

Astronomy

Nov. 20, 2014 Rise Set
Actual Time 9:55 AM HAST 6:22 PM HAST
Civil Twilight 9:16 AM HAST 7:01 PM HAST
Nautical Twilight 8:33 AM HAST 7:43 PM HAST
Astronomical Twilight 7:53 AM HAST 8:24 PM HAST
Moon 9:00 AM HAST (11/21) 6:24 PM HAST (11/21)
Length of Visible Light 9h 44m
Length of Day
8h 26m
Waning Crescent, 0% of the Moon is Illuminated
Nov 21
Waning Crescent
Nov 22
New
Nov 29
First Quarter
Dec 6
Full
Dec 14
Last Quarter

Hourly Weather History & Observations

Time (HAST) Temp. Windchill Dew Point Humidity Pressure Visibility Wind Dir Wind Speed Gust Speed Precip Events Conditions
12:18 AM 39.2 °F 29.3 °F 35.6 °F 87% 29.32 in 10.0 mi NNE 20.7 mph - N/A   Overcast
12:30 AM 39.2 °F 29.6 °F 35.6 °F 87% 29.32 in 10.0 mi North 19.6 mph - N/A   Overcast
12:43 AM 39.2 °F 30.8 °F 35.6 °F 87% 29.33 in 6.2 mi North 15.0 mph - N/A Rain Light Rain
12:52 AM 39.2 °F 30.8 °F 35.6 °F 87% 29.33 in 10.0 mi North 15.0 mph - N/A Rain Light Rain
12:56 AM 41.0 °F 31.6 °F 36.0 °F 82% 29.33 in 10.0 mi North 20.7 mph 25.3 mph N/A   Overcast
1:15 AM 39.2 °F 30.2 °F 35.6 °F 87% 29.34 in 10.0 mi North 17.3 mph - N/A Rain Light Rain
1:36 AM 41.0 °F 31.4 °F 35.6 °F 81% 29.34 in 10.0 mi North 21.9 mph 26.5 mph N/A   Mostly Cloudy
1:56 AM 41.0 °F 31.6 °F 36.0 °F 82% 29.35 in 10.0 mi North 20.7 mph - N/A   Mostly Cloudy
2:15 AM 39.2 °F 29.0 °F 35.6 °F 87% 29.36 in 10.0 mi North 21.9 mph - N/A   Mostly Cloudy
2:35 AM 39.2 °F 29.3 °F 35.6 °F 87% 29.36 in 6.2 mi North 20.7 mph 31.1 mph N/A Rain Light Rain
2:56 AM 39.9 °F 30.0 °F 35.1 °F 83% 29.37 in 10.0 mi North 21.9 mph - N/A   Overcast
3:43 AM 39.2 °F 29.0 °F 35.6 °F 87% 29.37 in 10.0 mi North 21.9 mph 27.6 mph N/A   Overcast
3:51 AM 39.2 °F 28.7 °F 35.6 °F 87% 29.37 in 10.0 mi North 23.0 mph 28.8 mph N/A   Overcast
3:56 AM 39.9 °F 29.2 °F 36.0 °F 86% 29.38 in 10.0 mi North 25.3 mph 29.9 mph N/A   Overcast
4:02 AM 39.2 °F 29.0 °F 35.6 °F 87% 29.37 in 10.0 mi North 21.9 mph 29.9 mph N/A   Overcast
4:27 AM 39.2 °F 28.7 °F 35.6 °F 87% 29.38 in 10.0 mi North 23.0 mph - N/A   Mostly Cloudy
4:42 AM 39.2 °F 28.7 °F 35.6 °F 87% 29.38 in 10.0 mi North 23.0 mph 28.8 mph N/A   Mostly Cloudy
4:56 AM 39.9 °F 30.0 °F 35.1 °F 83% 29.39 in 10.0 mi North 21.9 mph 27.6 mph N/A   Overcast
5:16 AM 39.2 °F 29.6 °F 35.6 °F 87% 29.39 in 10.0 mi North 19.6 mph - N/A   Overcast
5:25 AM 41.0 °F 31.6 °F 35.6 °F 81% 29.40 in 10.0 mi North 20.7 mph - N/A   Overcast
5:44 AM 39.2 °F 29.3 °F 35.6 °F 87% 29.40 in 10.0 mi North 20.7 mph - N/A   Overcast
5:56 AM 41.0 °F 31.1 °F 36.0 °F 82% 29.41 in 10.0 mi North 23.0 mph - N/A Rain Light Rain
6:22 AM 39.2 °F 28.7 °F 35.6 °F 87% 29.42 in 10.0 mi North 23.0 mph 31.1 mph N/A   Overcast
6:45 AM 39.2 °F 28.0 °F 35.6 °F 87% 29.43 in 10.0 mi North 26.5 mph 29.9 mph N/A   Overcast
6:56 AM 39.9 °F 29.5 °F 35.1 °F 83% 29.43 in 10.0 mi North 24.2 mph 29.9 mph N/A   Overcast
7:31 AM 41.0 °F 31.4 °F 33.8 °F 76% 29.44 in 10.0 mi North 21.9 mph - N/A   Overcast
7:56 AM 39.9 °F 30.5 °F 33.1 °F 77% 29.45 in 10.0 mi North 19.6 mph 31.1 mph N/A Rain Light Rain
8:05 AM 41.0 °F 32.2 °F 33.8 °F 76% 29.45 in 10.0 mi North 18.4 mph 26.5 mph N/A   Overcast
8:22 AM 39.2 °F 29.3 °F 35.6 °F 87% 29.46 in 10.0 mi North 20.7 mph 26.5 mph N/A   Overcast
8:37 AM 39.2 °F 29.8 °F 35.6 °F 87% 29.46 in 10.0 mi North 18.4 mph - N/A   Overcast
8:51 AM 39.2 °F 29.8 °F 35.6 °F 87% 29.46 in 10.0 mi North 18.4 mph - N/A   Overcast
8:56 AM 39.9 °F 31.1 °F 35.1 °F 83% 29.47 in 10.0 mi North 17.3 mph - N/A   Overcast
9:07 AM 39.2 °F 29.0 °F 35.6 °F 87% 29.47 in 10.0 mi North 21.9 mph - N/A   Overcast
9:48 AM 39.2 °F 29.8 °F 35.6 °F 87% 29.49 in 10.0 mi North 18.4 mph - N/A   Overcast
9:56 AM 39.9 °F 30.2 °F 34.0 °F 79% 29.49 in 10.0 mi North 20.7 mph 26.5 mph N/A   Overcast
10:23 AM 39.2 °F 29.0 °F 33.8 °F 81% 29.50 in 10.0 mi North 21.9 mph 32.2 mph N/A Rain Light Rain
10:31 AM 37.4 °F 28.2 °F 33.8 °F 87% 29.51 in 10.0 mi North 16.1 mph - N/A Rain Rain
10:56 AM 39.9 °F 30.2 °F 35.1 °F 83% 29.52 in 10.0 mi North 20.7 mph 27.6 mph N/A   Overcast
11:42 AM 39.2 °F 28.7 °F 33.8 °F 81% 29.53 in 10.0 mi North 23.0 mph - N/A   Overcast
11:46 AM 39.2 °F 28.5 °F 33.8 °F 81% 29.53 in 10.0 mi North 24.2 mph 28.8 mph N/A   Overcast
11:56 AM 39.0 °F 29.6 °F 34.0 °F 82% 29.53 in 10.0 mi North 18.4 mph - N/A Rain Light Rain
12:10 PM 39.2 °F 28.5 °F 33.8 °F 81% 29.53 in 10.0 mi North 24.2 mph - N/A Rain Light Rain
12:18 PM 37.4 °F 26.1 °F 33.8 °F 87% 29.53 in 10.0 mi North 24.2 mph 31.1 mph N/A   Overcast
12:56 PM 39.9 °F 29.5 °F 33.1 °F 77% 29.55 in 10.0 mi North 24.2 mph - N/A   Overcast
1:35 PM 39.2 °F 29.8 °F 32.0 °F 75% 29.55 in 10.0 mi NNW 18.4 mph - N/A   Overcast
1:56 PM 39.0 °F 28.8 °F 32.0 °F 76% 29.56 in 10.0 mi NNW 21.9 mph 26.5 mph N/A   Overcast
2:23 PM 37.4 °F 26.9 °F 33.8 °F 87% 29.56 in 6.2 mi North 20.7 mph 27.6 mph N/A Snow Light Snow
2:49 PM 37.4 °F 26.6 °F 33.8 °F 87% 29.56 in 10.0 mi North 21.9 mph - N/A Rain Light Rain
2:56 PM 39.0 °F 28.8 °F 33.1 °F 79% 29.57 in 10.0 mi North 21.9 mph 27.6 mph N/A Rain Light Rain
3:22 PM 39.2 °F 28.5 °F 30.2 °F 70% 29.56 in 10.0 mi North 24.2 mph 28.8 mph N/A   Mostly Cloudy
3:56 PM 37.9 °F 26.3 °F 28.9 °F 70% 29.57 in 10.0 mi NNW 26.5 mph 29.9 mph N/A   Mostly Cloudy
4:16 PM 37.4 °F 25.6 °F 30.2 °F 75% 29.58 in 10.0 mi North 26.5 mph 32.2 mph N/A Snow Light Snow
4:28 PM 37.4 °F 26.4 °F 30.2 °F 75% 29.58 in 10.0 mi North 23.0 mph 29.9 mph N/A   Scattered Clouds
4:43 PM 37.4 °F 26.1 °F 30.2 °F 75% 29.58 in 10.0 mi North 24.2 mph 32.2 mph N/A   Mostly Cloudy
4:56 PM 37.0 °F 25.1 °F 30.9 °F 79% 29.59 in 9.0 mi North 26.5 mph 33.4 mph N/A   Mostly Cloudy
5:06 PM 37.4 °F 26.9 °F 30.2 °F 75% 29.59 in 6.2 mi NNW 20.7 mph 26.5 mph N/A Snow Light Snow
5:29 PM 35.6 °F 23.2 °F 28.4 °F 75% 29.60 in 10.0 mi NNW 26.5 mph 34.5 mph N/A   Overcast
5:56 PM 36.0 °F 24.2 °F 30.0 °F 79% 29.60 in 9.0 mi North 24.2 mph 32.2 mph N/A Snow Light Snow
6:35 PM 37.4 °F 27.2 °F 30.2 °F 75% 29.62 in 10.0 mi North 19.6 mph 28.8 mph N/A   Overcast
6:44 PM 37.4 °F 26.6 °F 28.4 °F 70% 29.62 in 10.0 mi NNW 21.9 mph 28.8 mph N/A   Overcast
6:56 PM 37.0 °F 25.9 °F 28.0 °F 70% 29.62 in 10.0 mi NNW 23.0 mph 29.9 mph N/A   Mostly Cloudy
7:29 PM 37.4 °F 26.6 °F 30.2 °F 75% 29.63 in 10.0 mi NNW 21.9 mph 26.5 mph N/A   Mostly Cloudy
7:42 PM 37.4 °F 26.6 °F 28.4 °F 70% 29.63 in 10.0 mi NNW 21.9 mph 28.8 mph N/A   Mostly Cloudy
7:46 PM 37.4 °F 26.1 °F 28.4 °F 70% 29.63 in 10.0 mi NNW 24.2 mph 29.9 mph N/A   Scattered Clouds
7:56 PM 37.0 °F 26.4 °F 26.1 °F 65% 29.64 in 10.0 mi NNW 20.7 mph - N/A   Mostly Cloudy
8:56 PM 37.0 °F 26.7 °F 28.9 °F 73% 29.65 in 10.0 mi NNW 19.6 mph 27.6 mph N/A   Overcast
9:21 PM 35.6 °F 24.5 °F 28.4 °F 75% 29.66 in 6.2 mi NNW 20.7 mph 29.9 mph N/A Snow Light Snow
9:43 PM 35.6 °F 25.5 °F 28.4 °F 75% 29.67 in 10.0 mi North 17.3 mph - N/A Rain Light Freezing Rain
9:51 PM 35.6 °F 25.2 °F 28.4 °F 75% 29.67 in 6.2 mi North 18.4 mph 25.3 mph N/A Snow Light Snow
9:52 PM 35.6 °F 25.9 °F 28.4 °F 75% 29.67 in 6.2 mi North 16.1 mph 25.3 mph N/A Snow Light Snow
9:56 PM 36.0 °F 25.0 °F 30.0 °F 79% 29.67 in 8.0 mi NNW 20.7 mph 25.3 mph N/A Snow Light Snow
10:03 PM 35.6 °F 24.0 °F 28.4 °F 75% 29.67 in 6.2 mi NNW 23.0 mph - N/A Rain Light Rain
10:10 PM 35.6 °F 24.2 °F 26.6 °F 70% 29.67 in 10.0 mi NNW 21.9 mph - N/A Rain Light Freezing Rain
10:17 PM 37.4 °F 26.4 °F 24.8 °F 60% 29.67 in 10.0 mi NNW 23.0 mph - N/A Rain Light Freezing Rain
10:31 PM 37.4 °F 27.5 °F 24.8 °F 60% 29.68 in 10.0 mi NNW 18.4 mph 28.8 mph N/A   Mostly Cloudy
10:56 PM 35.1 °F 23.8 °F 28.9 °F 78% 29.69 in 8.0 mi North 20.7 mph - N/A Snow Light Snow
11:56 PM 36.0 °F 25.3 °F 25.0 °F 64% 29.70 in 10.0 mi NNW 19.6 mph 29.9 mph N/A   Overcast